Time,TemperatureF,DewpointF,PressureIn,WindDirection,WindDirectionDegrees,WindSpeedMPH,WindSpeedGustMPH,Humidity,HourlyPrecipIn,Conditions,Clouds,dailyrainin,SoftwareType,DateUTC
2013-01-16 00:00:00,29.2,24.3,29.74,SSW,203,0.0,0.0,82,0.00,,,0.00,WUHU216HW,2013-01-16 05:00:00,
2013-01-16 00:01:00,29.2,24.3,29.74,SSW,203,0.0,0.0,82,0.00,,,0.00,WUHU216HW,2013-01-16 05:01:00,
2013-01-16 00:04:00,29.2,24.3,29.73,SSW,203,0.0,0.0,82,0.00,,,0.00,WUHU216HW,2013-01-16 05:04:00,
2013-01-16 00:10:00,29.2,24.7,29.74,SSW,203,0.0,0.0,83,0.00,,,0.00,WUHU216HW,2013-01-16 05:10:00,
2013-01-16 00:15:00,29.2,24.7,29.73,SSW,203,0.0,0.4,83,0.00,,,0.00,WUHU216HW,2013-01-16 05:15:00,
2013-01-16 00:20:00,29.3,24.9,29.74,SSW,203,0.0,0.4,83,0.00,,,0.00,WUHU216HW,2013-01-16 05:20:00,
2013-01-16 00:25:00,29.3,24.9,29.74,SSW,203,0.0,0.0,83,0.00,,,0.00,WUHU216HW,2013-01-16 05:25:00,
2013-01-16 00:30:00,29.5,25.0,29.75,SSW,203,0.0,0.0,83,0.00,,,0.00,WUHU216HW,2013-01-16 05:30:00,
2013-01-16 00:35:00,29.7,25.2,29.75,SSW,203,0.4,0.4,83,0.00,,,0.00,WUHU216HW,2013-01-16 05:35:00,
2013-01-16 00:40:00,29.7,25.2,29.75,SSW,203,0.0,0.4,83,0.00,,,0.00,WUHU216HW,2013-01-16 05:40:00,
2013-01-16 00:45:00,29.9,25.4,29.74,SSW,203,0.0,0.0,83,0.00,,,0.00,WUHU216HW,2013-01-16 05:45:00,
2013-01-16 00:50:00,29.9,25.4,29.74,SSW,203,0.0,0.0,83,0.00,,,0.00,WUHU216HW,2013-01-16 05:50:00,
2013-01-16 00:55:00,29.9,25.4,29.73,SSW,203,0.0,0.0,83,0.00,,,0.00,WUHU216HW,2013-01-16 05:55:00,
2013-01-16 01:00:00,30.1,25.2,29.73,SSW,203,0.0,0.0,82,0.00,,,0.00,WUHU216HW,2013-01-16 06:00:00,
2013-01-16 01:05:00,30.1,25.2,29.73,SSW,203,0.0,0.0,82,0.00,,,0.00,WUHU216HW,2013-01-16 06:05:00,
2013-01-16 01:10:00,30.1,25.2,29.73,SSW,203,0.0,0.0,82,0.00,,,0.00,WUHU216HW,2013-01-16 06:10:00,
2013-01-16 01:15:00,30.1,25.2,29.72,SSW,203,0.0,0.0,82,0.00,,,0.00,WUHU216HW,2013-01-16 06:15:00,
2013-01-16 01:21:00,30.2,25.4,29.73,ENE,68,0.0,0.4,82,0.00,,,0.00,WUHU216HW,2013-01-16 06:21:00,
2013-01-16 01:26:00,30.2,25.4,29.73,ENE,68,0.0,0.4,82,0.00,,,0.00,WUHU216HW,2013-01-16 06:26:00,
2013-01-16 01:31:00,30.2,25.4,29.73,ENE,68,0.0,0.4,82,0.00,,,0.00,WUHU216HW,2013-01-16 06:31:00,
2013-01-16 01:36:00,30.2,25.4,29.73,ENE,68,0.0,0.0,82,0.00,,,0.00,WUHU216HW,2013-01-16 06:36:00,
2013-01-16 01:41:00,30.2,25.4,29.73,ENE,68,0.0,0.0,82,0.00,,,0.00,WUHU216HW,2013-01-16 06:41:00,
2013-01-16 01:46:00,30.2,25.1,29.73,ENE,68,0.0,0.0,81,0.00,,,0.00,WUHU216HW,2013-01-16 06:46:00,
2013-01-16 01:51:00,30.2,25.1,29.73,ENE,68,0.0,0.0,81,0.00,,,0.00,WUHU216HW,2013-01-16 06:51:00,
2013-01-16 01:56:00,30.2,25.1,29.73,ENE,68,0.0,0.0,81,0.00,,,0.00,WUHU216HW,2013-01-16 06:56:00,
2013-01-16 02:01:00,30.2,25.1,29.73,ENE,68,0.0,0.0,81,0.00,,,0.00,WUHU216HW,2013-01-16 07:01:00,
2013-01-16 02:06:00,30.2,25.1,29.72,ENE,68,0.0,0.0,81,0.00,,,0.00,WUHU216HW,2013-01-16 07:06:00,
2013-01-16 02:11:00,30.4,25.3,29.73,ENE,68,0.0,0.0,81,0.00,,,0.00,WUHU216HW,2013-01-16 07:11:00,
2013-01-16 02:16:00,30.4,25.3,29.72,ENE,68,0.0,0.0,81,0.00,,,0.00,WUHU216HW,2013-01-16 07:16:00,
2013-01-16 02:21:00,30.4,25.3,29.73,ENE,68,0.0,0.0,81,0.00,,,0.00,WUHU216HW,2013-01-16 07:21:00,
2013-01-16 02:26:00,30.4,25.3,29.73,ENE,68,0.0,0.0,81,0.00,,,0.00,WUHU216HW,2013-01-16 07:26:00,
2013-01-16 02:31:00,30.6,25.5,29.73,NNE,23,0.2,0.7,81,0.00,,,0.00,WUHU216HW,2013-01-16 07:31:00,
2013-01-16 02:36:00,30.6,25.5,29.72,NNE,23,0.0,0.7,81,0.00,,,0.00,WUHU216HW,2013-01-16 07:36:00,
2013-01-16 02:41:00,30.6,25.5,29.72,NNE,23,0.0,0.2,81,0.00,,,0.00,WUHU216HW,2013-01-16 07:41:00,
2013-01-16 02:46:00,30.6,25.2,29.72,NNE,23,0.0,0.4,80,0.00,,,0.00,WUHU216HW,2013-01-16 07:46:00,
2013-01-16 02:52:00,30.8,25.0,29.73,North,0,0.0,0.4,79,0.00,,,0.00,WUHU216HW,2013-01-16 07:52:00,
2013-01-16 02:57:00,30.6,24.8,29.73,North,0,0.0,0.2,79,0.00,,,0.00,WUHU216HW,2013-01-16 07:57:00,
2013-01-16 03:02:00,30.6,24.8,29.72,North,0,0.0,0.0,79,0.00,,,0.00,WUHU216HW,2013-01-16 08:02:00,
2013-01-16 03:07:00,30.8,25.0,29.71,NE,45,0.0,0.4,79,0.00,,,0.00,WUHU216HW,2013-01-16 08:07:00,
2013-01-16 03:12:00,30.8,24.8,29.71,NE,45,0.0,0.4,78,0.00,,,0.00,WUHU216HW,2013-01-16 08:12:00,
2013-01-16 03:17:00,30.8,24.8,29.71,NE,45,0.0,0.0,78,0.00,,,0.00,WUHU216HW,2013-01-16 08:17:00,
2013-01-16 03:22:00,30.8,24.8,29.71,North,0,0.0,1.8,78,0.00,,,0.00,WUHU216HW,2013-01-16 08:22:00,
2013-01-16 03:27:00,30.8,24.8,29.70,North,0,0.0,1.8,78,0.00,,,0.00,WUHU216HW,2013-01-16 08:27:00,
2013-01-16 03:32:00,30.8,24.8,29.69,North,0,0.0,0.2,78,0.00,,,0.00,WUHU216HW,2013-01-16 08:32:00,
2013-01-16 03:37:00,30.6,24.6,29.69,North,0,0.0,0.2,78,0.00,,,0.00,WUHU216HW,2013-01-16 08:37:00,
2013-01-16 03:42:00,30.6,24.6,29.68,North,0,0.0,0.0,78,0.00,,,0.00,WUHU216HW,2013-01-16 08:42:00,
2013-01-16 03:47:00,30.6,24.6,29.67,ENE,68,0.0,0.2,78,0.00,,,0.00,WUHU216HW,2013-01-16 08:47:00,
2013-01-16 03:53:00,30.6,24.6,29.67,ENE,68,0.0,0.4,78,0.00,,,0.00,WUHU216HW,2013-01-16 08:53:00,
2013-01-16 03:58:00,30.6,24.6,29.67,NE,45,0.0,0.4,78,0.00,,,0.00,WUHU216HW,2013-01-16 08:58:00,
2013-01-16 04:03:00,30.6,24.6,29.67,NNE,23,0.0,0.4,78,0.00,,,0.00,WUHU216HW,2013-01-16 09:03:00,
2013-01-16 04:08:00,30.6,24.6,29.67,NNW,338,0.2,0.4,78,0.00,,,0.00,WUHU216HW,2013-01-16 09:08:00,
2013-01-16 04:13:00,30.6,24.6,29.67,NNE,23,0.7,0.7,78,0.00,,,0.00,WUHU216HW,2013-01-16 09:13:00,
2013-01-16 04:18:00,30.6,24.6,29.67,NNE,23,1.6,1.6,78,0.00,,,0.00,WUHU216HW,2013-01-16 09:18:00,
2013-01-16 04:23:00,30.4,24.4,29.67,ESE,113,1.1,2.2,78,0.00,,,0.00,WUHU216HW,2013-01-16 09:23:00,
2013-01-16 04:28:00,30.2,24.5,29.66,ENE,68,0.4,2.2,79,0.00,,,0.00,WUHU216HW,2013-01-16 09:28:00,
2013-01-16 04:33:00,29.9,25.0,29.66,ENE,68,0.7,3.6,82,0.00,,,0.00,WUHU216HW,2013-01-16 09:33:00,
2013-01-16 04:38:00,29.3,24.9,29.66,NNE,23,0.2,3.6,83,0.00,,,0.00,WUHU216HW,2013-01-16 09:38:00,
2013-01-16 04:43:00,29.2,24.9,29.66,NNE,23,0.2,2.0,84,0.00,,,0.00,WUHU216HW,2013-01-16 09:43:00,
2013-01-16 04:48:00,29.0,25.3,29.66,NNE,23,1.8,2.0,86,0.00,,,0.00,WUHU216HW,2013-01-16 09:48:00,
2013-01-16 04:53:00,28.8,25.1,29.65,NNE,23,0.0,1.8,86,0.00,,,0.00,WUHU216HW,2013-01-16 09:53:00,
2013-01-16 04:59:00,28.6,24.7,29.65,ESE,113,0.2,1.3,85,0.00,,,0.00,WUHU216HW,2013-01-16 09:59:00,
2013-01-16 05:04:00,28.6,24.9,29.64,ENE,68,0.2,1.1,86,0.00,,,0.00,WUHU216HW,2013-01-16 10:04:00,
2013-01-16 05:09:00,28.4,24.8,29.64,ESE,113,0.2,1.1,86,0.00,,,0.00,WUHU216HW,2013-01-16 10:09:00,
2013-01-16 05:14:00,28.4,24.8,29.64,ESE,113,0.0,0.4,86,0.00,,,0.00,WUHU216HW,2013-01-16 10:14:00,
2013-01-16 05:19:00,28.4,24.8,29.64,ENE,68,0.0,1.1,86,0.00,,,0.00,WUHU216HW,2013-01-16 10:19:00,
2013-01-16 05:24:00,28.4,24.8,29.65,ENE,68,0.4,1.1,86,0.00,,,0.00,WUHU216HW,2013-01-16 10:24:00,
2013-01-16 05:29:00,28.3,24.8,29.65,ENE,68,0.4,0.7,87,0.00,,,0.00,WUHU216HW,2013-01-16 10:29:00,
2013-01-16 05:34:00,28.3,24.6,29.65,East,90,0.9,0.9,86,0.00,,,0.00,WUHU216HW,2013-01-16 10:34:00,
2013-01-16 05:39:00,28.1,24.4,29.65,East,90,0.0,1.1,86,0.00,,,0.00,WUHU216HW,2013-01-16 10:39:00,
2013-01-16 05:45:00,28.1,24.7,29.65,East,90,0.2,1.1,87,0.00,,,0.00,WUHU216HW,2013-01-16 10:45:00,
2013-01-16 05:50:00,28.1,25.0,29.64,East,90,0.4,0.4,88,0.00,,,0.00,WUHU216HW,2013-01-16 10:50:00,
2013-01-16 05:55:00,27.9,24.9,29.64,East,90,1.1,1.1,88,0.00,,,0.00,WUHU216HW,2013-01-16 10:55:00,
2013-01-16 06:00:00,27.9,24.9,29.63,East,90,0.0,1.1,88,0.00,,,0.00,WUHU216HW,2013-01-16 11:00:00,
2013-01-16 06:05:00,27.9,24.9,29.63,East,90,0.0,0.7,88,0.00,,,0.00,WUHU216HW,2013-01-16 11:05:00,
2013-01-16 06:10:00,27.9,25.1,29.64,East,90,1.1,1.1,89,0.00,,,0.00,WUHU216HW,2013-01-16 11:10:00,
2013-01-16 06:15:00,27.9,25.4,29.63,East,90,0.4,1.1,90,0.00,,,0.00,WUHU216HW,2013-01-16 11:15:00,
2013-01-16 06:20:00,27.9,25.4,29.64,East,90,0.0,1.1,90,0.00,,,0.00,WUHU216HW,2013-01-16 11:20:00,
2013-01-16 06:25:00,27.9,25.4,29.63,East,90,0.4,0.9,90,0.00,,,0.00,WUHU216HW,2013-01-16 11:25:00,
2013-01-16 06:30:00,27.7,25.5,29.63,East,90,1.1,1.1,91,0.00,,,0.00,WUHU216HW,2013-01-16 11:30:00,
2013-01-16 06:35:00,27.7,25.2,29.64,East,90,0.4,1.3,90,0.00,,,0.00,WUHU216HW,2013-01-16 11:35:00,
2013-01-16 06:40:00,27.7,25.5,29.63,East,90,0.0,1.3,91,0.00,,,0.00,WUHU216HW,2013-01-16 11:40:00,
2013-01-16 06:46:00,27.7,25.5,29.63,East,90,0.9,1.8,91,0.00,,,0.00,WUHU216HW,2013-01-16 11:46:00,
2013-01-16 06:51:00,27.7,25.5,29.62,East,90,1.1,1.8,91,0.00,,,0.00,WUHU216HW,2013-01-16 11:51:00,
2013-01-16 06:56:00,27.7,25.5,29.63,East,90,0.4,1.1,91,0.00,,,0.00,WUHU216HW,2013-01-16 11:56:00,
2013-01-16 07:01:00,27.7,25.5,29.63,East,90,0.4,0.7,91,0.00,,,0.00,WUHU216HW,2013-01-16 12:01:00,
2013-01-16 07:06:00,27.7,25.5,29.63,East,90,0.2,0.4,91,0.00,,,0.00,WUHU216HW,2013-01-16 12:06:00,
2013-01-16 07:11:00,27.7,25.5,29.62,East,90,0.4,0.4,91,0.00,,,0.00,WUHU216HW,2013-01-16 12:11:00,
2013-01-16 07:16:00,27.7,25.5,29.61,East,90,0.0,0.4,91,0.00,,,0.00,WUHU216HW,2013-01-16 12:16:00,
2013-01-16 07:21:00,27.7,25.5,29.61,East,90,0.0,0.4,91,0.00,,,0.00,WUHU216HW,2013-01-16 12:21:00,
2013-01-16 07:27:00,27.7,25.5,29.61,East,90,0.0,0.0,91,0.00,,,0.00,WUHU216HW,2013-01-16 12:27:00,
2013-01-16 07:32:00,27.7,25.5,29.61,East,90,0.0,0.0,91,0.00,,,0.00,WUHU216HW,2013-01-16 12:32:00,
2013-01-16 07:37:00,27.7,25.5,29.61,East,90,0.0,0.0,91,0.00,,,0.00,WUHU216HW,2013-01-16 12:37:00,
2013-01-16 07:42:00,27.7,25.5,29.60,East,90,0.2,0.2,91,0.00,,,0.00,WUHU216HW,2013-01-16 12:42:00,
2013-01-16 07:47:00,27.7,25.5,29.60,East,90,1.1,1.1,91,0.00,,,0.00,WUHU216HW,2013-01-16 12:47:00,
2013-01-16 07:52:00,27.7,25.5,29.60,East,90,0.0,1.1,91,0.00,,,0.00,WUHU216HW,2013-01-16 12:52:00,
2013-01-16 07:57:00,27.9,25.7,29.59,East,90,0.0,1.1,91,0.00,,,0.00,WUHU216HW,2013-01-16 12:57:00,
2013-01-16 08:02:00,27.9,25.7,29.58,East,90,0.0,1.1,91,0.00,,,0.00,WUHU216HW,2013-01-16 13:02:00,
2013-01-16 08:07:00,27.9,25.7,29.59,East,90,0.0,0.2,91,0.00,,,0.00,WUHU216HW,2013-01-16 13:07:00,
2013-01-16 08:12:00,27.9,25.7,29.60,East,90,0.0,0.0,91,0.00,,,0.00,WUHU216HW,2013-01-16 13:12:00,
2013-01-16 08:17:00,27.9,25.9,29.60,East,90,0.0,0.0,92,0.00,,,0.00,WUHU216HW,2013-01-16 13:17:00,
2013-01-16 08:22:00,27.9,25.7,29.60,East,90,0.0,0.0,91,0.00,,,0.00,WUHU216HW,2013-01-16 13:22:00,
2013-01-16 08:27:00,28.1,25.8,29.59,East,90,0.2,0.2,91,0.00,,,0.00,WUHU216HW,2013-01-16 13:27:00,
2013-01-16 08:33:00,28.1,25.8,29.59,East,90,0.4,0.4,91,0.00,,,0.00,WUHU216HW,2013-01-16 13:33:00,
2013-01-16 08:38:00,28.1,25.8,29.59,East,90,0.0,1.1,91,0.00,,,0.00,WUHU216HW,2013-01-16 13:38:00,
2013-01-16 08:43:00,28.3,26.0,29.59,East,90,0.0,1.1,91,0.00,,,0.00,WUHU216HW,2013-01-16 13:43:00,
2013-01-16 08:48:00,28.4,26.2,29.59,East,90,0.0,0.0,91,0.00,,,0.00,WUHU216HW,2013-01-16 13:48:00,
2013-01-16 08:53:00,28.4,26.2,29.59,East,90,0.0,0.0,91,0.00,,,0.00,WUHU216HW,2013-01-16 13:53:00,
2013-01-16 08:58:00,28.4,26.2,29.59,East,90,0.0,0.0,91,0.00,,,0.00,WUHU216HW,2013-01-16 13:58:00,
2013-01-16 09:03:00,28.6,26.4,29.57,East,90,0.0,0.0,91,0.00,,,0.00,WUHU216HW,2013-01-16 14:03:00,
2013-01-16 09:08:00,28.6,26.4,29.56,East,90,0.0,0.0,91,0.00,,,0.00,WUHU216HW,2013-01-16 14:08:00,
2013-01-16 09:13:00,28.8,26.6,29.56,East,90,0.4,0.4,91,0.00,,,0.00,WUHU216HW,2013-01-16 14:13:00,
2013-01-16 09:19:00,29.0,26.7,29.55,East,90,0.2,0.4,91,0.00,,,0.00,WUHU216HW,2013-01-16 14:19:00,
2013-01-16 09:24:00,29.2,26.9,29.55,East,90,0.0,0.4,91,0.00,,,0.00,WUHU216HW,2013-01-16 14:24:00,
2013-01-16 09:29:00,29.3,27.1,29.54,East,90,0.0,1.1,91,0.00,,,0.00,WUHU216HW,2013-01-16 14:29:00,
2013-01-16 09:34:00,29.5,27.3,29.53,East,90,0.2,1.1,91,0.00,,,0.00,WUHU216HW,2013-01-16 14:34:00,
2013-01-16 09:39:00,29.5,27.0,29.53,East,90,0.0,0.4,90,0.00,,,0.00,WUHU216HW,2013-01-16 14:39:00,
2013-01-16 09:44:00,29.9,27.6,29.53,East,90,1.8,1.8,91,0.00,,,0.00,WUHU216HW,2013-01-16 14:44:00,
2013-01-16 09:49:00,29.5,27.0,29.52,East,90,0.4,2.5,90,0.00,,,0.00,WUHU216HW,2013-01-16 14:49:00,
2013-01-16 09:54:00,29.7,27.2,29.51,East,90,0.2,2.5,90,0.00,,,0.00,WUHU216HW,2013-01-16 14:54:00,
2013-01-16 09:59:00,29.5,27.0,29.51,East,90,0.4,2.0,90,0.00,,,0.00,WUHU216HW,2013-01-16 14:59:00,
2013-01-16 10:04:00,29.7,27.2,29.50,East,90,0.0,2.0,90,0.00,,,0.00,WUHU216HW,2013-01-16 15:04:00,
2013-01-16 10:09:00,29.7,27.5,29.50,East,90,1.1,1.3,91,0.00,,,0.00,WUHU216HW,2013-01-16 15:09:00,
2013-01-16 10:15:00,29.7,27.5,29.50,East,90,0.7,1.6,91,0.00,,,0.00,WUHU216HW,2013-01-16 15:15:00,
2013-01-16 10:20:00,29.7,27.5,29.50,East,90,1.1,2.0,91,0.00,,,0.00,WUHU216HW,2013-01-16 15:20:00,
2013-01-16 10:25:00,29.7,27.5,29.50,East,90,0.2,2.0,91,0.00,,,0.00,WUHU216HW,2013-01-16 15:25:00,
2013-01-16 10:30:00,29.9,27.6,29.50,East,90,0.4,2.5,91,0.00,,,0.00,WUHU216HW,2013-01-16 15:30:00,
2013-01-16 10:35:00,29.9,27.9,29.50,East,90,1.8,1.8,92,0.00,,,0.00,WUHU216HW,2013-01-16 15:35:00,
2013-01-16 10:40:00,29.7,27.7,29.50,East,90,0.2,1.8,92,0.00,,,0.00,WUHU216HW,2013-01-16 15:40:00,
2013-01-16 10:45:00,29.7,27.5,29.51,East,90,0.2,2.7,91,0.00,,,0.00,WUHU216HW,2013-01-16 15:45:00,
2013-01-16 10:50:00,29.9,27.9,29.50,East,90,0.2,2.0,92,0.00,,,0.00,WUHU216HW,2013-01-16 15:50:00,
2013-01-16 10:55:00,29.7,27.7,29.50,East,90,0.9,2.0,92,0.00,,,0.00,WUHU216HW,2013-01-16 15:55:00,
2013-01-16 11:01:00,29.9,27.9,29.50,East,90,2.7,2.7,92,0.00,,,0.00,WUHU216HW,2013-01-16 16:01:00,
2013-01-16 11:06:00,29.9,28.1,29.49,East,90,1.3,2.7,93,0.00,,,0.00,WUHU216HW,2013-01-16 16:06:00,
2013-01-16 11:11:00,30.1,28.3,29.48,East,90,2.5,3.8,93,0.00,,,0.00,WUHU216HW,2013-01-16 16:11:00,
2013-01-16 11:16:00,30.1,28.3,29.48,East,90,0.4,3.8,93,0.00,,,0.00,WUHU216HW,2013-01-16 16:16:00,
2013-01-16 11:21:00,30.1,28.3,29.47,East,90,0.0,2.5,93,0.00,,,0.00,WUHU216HW,2013-01-16 16:21:00,
2013-01-16 11:26:00,30.4,28.6,29.46,East,90,0.2,2.5,93,0.00,,,0.00,WUHU216HW,2013-01-16 16:26:00,
2013-01-16 11:31:00,30.2,28.4,29.46,East,90,3.8,3.8,93,0.00,,,0.00,WUHU216HW,2013-01-16 16:31:00,
2013-01-16 11:36:00,30.2,28.4,29.46,East,90,0.0,3.8,93,0.00,,,0.00,WUHU216HW,2013-01-16 16:36:00,
2013-01-16 11:41:00,30.2,28.4,29.46,East,90,0.0,1.8,93,0.00,,,0.00,WUHU216HW,2013-01-16 16:41:00,
2013-01-16 11:47:00,30.2,28.4,29.46,East,90,1.8,1.8,93,0.00,,,0.00,WUHU216HW,2013-01-16 16:47:00,
2013-01-16 11:52:00,30.4,28.6,29.45,East,90,1.1,1.8,93,0.00,,,0.00,WUHU216HW,2013-01-16 16:52:00,
2013-01-16 11:57:00,30.2,28.4,29.46,East,90,0.0,1.1,93,0.00,,,0.00,WUHU216HW,2013-01-16 16:57:00,
2013-01-16 12:02:00,30.4,28.6,29.45,East,90,0.0,0.7,93,0.00,,,0.00,WUHU216HW,2013-01-16 17:02:00,
2013-01-16 12:07:00,30.6,28.8,29.46,East,90,0.0,0.0,93,0.00,,,0.00,WUHU216HW,2013-01-16 17:07:00,
2013-01-16 12:12:00,30.6,28.8,29.45,East,90,0.0,0.0,93,0.00,,,0.00,WUHU216HW,2013-01-16 17:12:00,
2013-01-16 12:17:00,31.0,29.2,29.44,East,90,0.0,0.0,93,0.00,,,0.00,WUHU216HW,2013-01-16 17:17:00,
2013-01-16 12:22:00,31.0,29.2,29.43,East,90,0.0,0.0,93,0.00,,,0.00,WUHU216HW,2013-01-16 17:22:00,
2013-01-16 12:27:00,31.1,29.3,29.43,East,90,0.0,0.0,93,0.00,,,0.00,WUHU216HW,2013-01-16 17:27:00,
2013-01-16 12:32:00,31.1,29.2,29.43,East,90,0.0,0.0,92,0.00,,,0.00,WUHU216HW,2013-01-16 17:32:00,
2013-01-16 12:37:00,31.1,29.2,29.43,East,90,0.0,0.0,92,0.00,,,0.00,WUHU216HW,2013-01-16 17:37:00,
2013-01-16 12:42:00,31.0,29.0,29.43,East,90,0.0,0.0,92,0.00,,,0.00,WUHU216HW,2013-01-16 17:42:00,
2013-01-16 12:47:00,31.0,29.0,29.43,East,90,0.0,0.0,92,0.00,,,0.00,WUHU216HW,2013-01-16 17:47:00,
2013-01-16 12:53:00,31.1,29.2,29.43,East,90,0.0,0.0,92,0.00,,,0.00,WUHU216HW,2013-01-16 17:53:00,
2013-01-16 12:58:00,31.1,29.2,29.44,East,90,0.0,0.0,92,0.00,,,0.00,WUHU216HW,2013-01-16 17:58:00,
2013-01-16 13:03:00,31.3,29.4,29.44,East,90,0.0,0.0,92,0.00,,,0.00,WUHU216HW,2013-01-16 18:03:00,
2013-01-16 13:08:00,31.3,29.4,29.43,East,90,0.0,0.0,92,0.00,,,0.00,WUHU216HW,2013-01-16 18:08:00,
2013-01-16 13:13:00,31.5,29.5,29.42,East,90,0.0,0.0,92,0.00,,,0.00,WUHU216HW,2013-01-16 18:13:00,
2013-01-16 13:18:00,31.5,29.5,29.42,East,90,0.0,0.0,92,0.00,,,0.00,WUHU216HW,2013-01-16 18:18:00,
2013-01-16 13:23:00,31.7,29.7,29.41,East,90,0.0,0.0,92,0.00,,,0.00,WUHU216HW,2013-01-16 18:23:00,
2013-01-16 13:28:00,31.7,29.7,29.40,East,90,0.0,0.0,92,0.00,,,0.00,WUHU216HW,2013-01-16 18:28:00,
2013-01-16 13:33:00,31.7,29.7,29.40,East,90,0.0,0.0,92,0.00,,,0.00,WUHU216HW,2013-01-16 18:33:00,
2013-01-16 13:38:00,31.5,29.5,29.40,East,90,0.0,0.0,92,0.00,,,0.00,WUHU216HW,2013-01-16 18:38:00,
2013-01-16 13:43:00,31.5,29.5,29.39,East,90,0.0,0.0,92,0.00,,,0.00,WUHU216HW,2013-01-16 18:43:00,
2013-01-16 13:48:00,31.5,29.5,29.37,East,90,0.0,0.0,92,0.00,,,0.00,WUHU216HW,2013-01-16 18:48:00,
2013-01-16 13:54:00,31.7,29.7,29.35,East,90,0.0,0.0,92,0.00,,,0.00,WUHU216HW,2013-01-16 18:54:00,
2013-01-16 13:59:00,31.9,29.9,29.36,East,90,0.0,0.0,92,0.00,,,0.00,WUHU216HW,2013-01-16 18:59:00,
2013-01-16 14:04:00,31.9,29.9,29.35,East,90,0.0,0.0,92,0.00,,,0.00,WUHU216HW,2013-01-16 19:04:00,
2013-01-16 14:09:00,32.0,30.1,29.35,East,90,0.0,0.0,92,0.00,,,0.00,WUHU216HW,2013-01-16 19:09:00,
2013-01-16 14:14:00,31.9,29.6,29.34,East,90,0.0,0.0,91,0.00,,,0.00,WUHU216HW,2013-01-16 19:14:00,
2013-01-16 14:19:00,31.7,29.4,29.35,East,90,0.0,0.0,91,0.00,,,0.00,WUHU216HW,2013-01-16 19:19:00,
2013-01-16 14:24:00,31.7,29.7,29.36,East,90,0.0,0.0,92,0.00,,,0.00,WUHU216HW,2013-01-16 19:24:00,
2013-01-16 14:29:00,31.7,29.4,29.37,East,90,0.0,0.0,91,0.00,,,0.00,WUHU216HW,2013-01-16 19:29:00,
2013-01-16 14:34:00,31.3,29.1,29.36,East,90,0.0,0.0,91,0.00,,,0.00,WUHU216HW,2013-01-16 19:34:00,
2013-01-16 14:39:00,31.3,29.4,29.35,East,90,0.0,0.0,92,0.00,,,0.00,WUHU216HW,2013-01-16 19:39:00,
2013-01-16 14:45:00,31.3,29.4,29.36,East,90,0.0,0.0,92,0.00,,,0.00,WUHU216HW,2013-01-16 19:45:00,
2013-01-16 14:50:00,31.3,29.4,29.36,East,90,0.0,0.0,92,0.00,,,0.00,WUHU216HW,2013-01-16 19:50:00,
2013-01-16 14:55:00,31.3,29.5,29.36,East,90,0.0,0.0,93,0.00,,,0.00,WUHU216HW,2013-01-16 19:55:00,
2013-01-16 15:00:00,31.1,29.3,29.37,East,90,0.0,0.0,93,0.00,,,0.00,WUHU216HW,2013-01-16 20:00:00,
2013-01-16 15:05:00,31.3,29.5,29.38,East,90,0.0,0.0,93,0.00,,,0.00,WUHU216HW,2013-01-16 20:05:00,
2013-01-16 15:10:00,31.3,29.4,29.37,East,90,0.0,0.0,92,0.00,,,0.00,WUHU216HW,2013-01-16 20:10:00,
2013-01-16 15:15:00,31.3,29.5,29.36,East,90,0.0,0.0,93,0.00,,,0.00,WUHU216HW,2013-01-16 20:15:00,
2013-01-16 15:20:00,31.3,29.5,29.37,East,90,0.0,0.0,93,0.00,,,0.00,WUHU216HW,2013-01-16 20:20:00,
2013-01-16 15:26:00,31.3,29.5,29.37,East,90,0.0,0.0,93,0.00,,,0.00,WUHU216HW,2013-01-16 20:26:00,
2013-01-16 15:31:00,31.3,29.5,29.37,East,90,0.0,0.0,93,0.00,,,0.00,WUHU216HW,2013-01-16 20:31:00,
2013-01-16 15:36:00,31.3,29.5,29.37,East,90,0.0,0.0,93,0.00,,,0.00,WUHU216HW,2013-01-16 20:36:00,
2013-01-16 15:41:00,31.3,29.5,29.36,East,90,0.0,0.0,93,0.00,,,0.00,WUHU216HW,2013-01-16 20:41:00,
2013-01-16 15:46:00,31.3,29.5,29.37,East,90,0.0,0.0,93,0.00,,,0.00,WUHU216HW,2013-01-16 20:46:00,
2013-01-16 15:51:00,31.3,29.5,29.36,East,90,0.0,0.0,93,0.00,,,0.00,WUHU216HW,2013-01-16 20:51:00,
2013-01-16 15:56:00,31.3,29.5,29.37,East,90,0.0,0.0,93,0.00,,,0.00,WUHU216HW,2013-01-16 20:56:00,
2013-01-16 16:01:00,31.3,29.5,29.36,East,90,0.0,0.0,93,0.00,,,0.00,WUHU216HW,2013-01-16 21:01:00,
2013-01-16 16:06:00,31.3,29.5,29.37,East,90,0.0,0.0,93,0.00,,,0.00,WUHU216HW,2013-01-16 21:06:00,
2013-01-16 16:12:00,31.3,29.5,29.37,East,90,0.0,0.0,93,0.00,,,0.00,WUHU216HW,2013-01-16 21:12:00,
2013-01-16 16:17:00,31.3,29.5,29.36,East,90,0.0,0.0,93,0.00,,,0.00,WUHU216HW,2013-01-16 21:17:00,
2013-01-16 16:22:00,31.3,29.5,29.36,East,90,0.0,0.0,93,0.00,,,0.00,WUHU216HW,2013-01-16 21:22:00,
2013-01-16 16:27:00,31.3,29.5,29.36,East,90,0.0,0.0,93,0.00,,,0.00,WUHU216HW,2013-01-16 21:27:00,
2013-01-16 16:32:00,31.3,29.5,29.36,East,90,0.0,0.0,93,0.00,,,0.00,WUHU216HW,2013-01-16 21:32:00,
2013-01-16 16:37:00,31.3,29.5,29.36,East,90,0.0,0.0,93,0.00,,,0.00,WUHU216HW,2013-01-16 21:37:00,
2013-01-16 16:42:00,31.3,29.5,29.36,East,90,0.0,0.0,93,0.00,,,0.00,WUHU216HW,2013-01-16 21:42:00,
2013-01-16 16:47:00,31.3,29.5,29.35,East,90,0.0,0.0,93,0.00,,,0.00,WUHU216HW,2013-01-16 21:47:00,
2013-01-16 16:52:00,31.3,29.5,29.36,East,90,0.0,0.0,93,0.00,,,0.00,WUHU216HW,2013-01-16 21:52:00,
2013-01-16 16:57:00,31.3,29.5,29.36,East,90,0.0,0.0,93,0.00,,,0.00,WUHU216HW,2013-01-16 21:57:00,
2013-01-16 17:02:00,31.3,29.5,29.36,East,90,0.0,0.0,93,0.00,,,0.00,WUHU216HW,2013-01-16 22:02:00,
2013-01-16 17:07:00,31.3,29.5,29.37,East,90,0.0,0.0,93,0.00,,,0.00,WUHU216HW,2013-01-16 22:07:00,
2013-01-16 17:12:00,31.3,29.5,29.36,East,90,0.0,0.0,93,0.00,,,0.00,WUHU216HW,2013-01-16 22:12:00,
2013-01-16 17:17:00,31.3,29.5,29.35,East,90,0.0,0.0,93,0.00,,,0.00,WUHU216HW,2013-01-16 22:17:00,
2013-01-16 17:22:00,31.3,29.5,29.35,East,90,0.0,0.0,93,0.00,,,0.00,WUHU216HW,2013-01-16 22:22:00,
2013-01-16 17:27:00,31.3,29.5,29.35,East,90,0.0,0.0,93,0.00,,,0.00,WUHU216HW,2013-01-16 22:27:00,
2013-01-16 17:32:00,31.3,29.5,29.35,East,90,0.0,0.0,93,0.00,,,0.00,WUHU216HW,2013-01-16 22:32:00,
2013-01-16 17:37:00,31.3,29.5,29.36,East,90,0.0,0.0,93,0.00,,,0.00,WUHU216HW,2013-01-16 22:37:00,
2013-01-16 17:42:00,31.3,29.5,29.36,East,90,0.0,0.0,93,0.00,,,0.00,WUHU216HW,2013-01-16 22:42:00,
2013-01-16 17:47:00,31.3,29.5,29.37,East,90,0.0,0.0,93,0.00,,,0.00,WUHU216HW,2013-01-16 22:47:00,
2013-01-16 17:52:00,31.3,29.5,29.36,East,90,0.0,0.0,93,0.00,,,0.00,WUHU216HW,2013-01-16 22:52:00,
2013-01-16 17:58:00,31.3,29.5,29.36,East,90,0.0,0.0,93,0.00,,,0.00,WUHU216HW,2013-01-16 22:58:00,
2013-01-16 18:03:00,31.3,29.5,29.36,East,90,0.0,0.0,93,0.00,,,0.00,WUHU216HW,2013-01-16 23:03:00,
2013-01-16 18:08:00,31.1,29.3,29.36,East,90,0.0,0.0,93,0.00,,,0.00,WUHU216HW,2013-01-16 23:08:00,
2013-01-16 18:13:00,31.3,29.5,29.36,East,90,0.0,0.0,93,0.00,,,0.00,WUHU216HW,2013-01-16 23:13:00,
2013-01-16 18:18:00,31.3,29.5,29.36,East,90,0.0,0.0,93,0.00,,,0.00,WUHU216HW,2013-01-16 23:18:00,
2013-01-16 18:23:00,31.3,29.5,29.36,East,90,0.0,0.0,93,0.00,,,0.00,WUHU216HW,2013-01-16 23:23:00,
2013-01-16 18:28:00,31.3,29.5,29.36,East,90,0.0,0.0,93,0.00,,,0.00,WUHU216HW,2013-01-16 23:28:00,
2013-01-16 18:33:00,31.3,29.5,29.35,East,90,0.0,0.0,93,0.00,,,0.00,WUHU216HW,2013-01-16 23:33:00,
2013-01-16 18:38:00,31.3,29.5,29.35,East,90,0.0,0.0,93,0.00,,,0.00,WUHU216HW,2013-01-16 23:38:00,
2013-01-16 18:43:00,31.3,29.5,29.34,East,90,0.0,0.0,93,0.00,,,0.00,WUHU216HW,2013-01-16 23:43:00,
2013-01-16 18:49:00,31.3,29.5,29.34,East,90,0.0,0.0,93,0.00,,,0.00,WUHU216HW,2013-01-16 23:49:00,
2013-01-16 18:54:00,31.3,29.5,29.33,East,90,0.0,0.0,93,0.00,,,0.00,WUHU216HW,2013-01-16 23:54:00,
2013-01-16 18:59:00,31.3,29.5,29.33,East,90,0.0,0.0,93,0.00,,,0.00,WUHU216HW,2013-01-16 23:59:00,
2013-01-16 19:04:00,31.3,29.5,29.34,East,90,0.0,0.0,93,0.00,,,0.00,WUHU216HW,2013-01-17 00:04:00,
2013-01-16 19:09:00,31.3,29.5,29.33,East,90,0.0,0.0,93,0.00,,,0.00,WUHU216HW,2013-01-17 00:09:00,
2013-01-16 19:14:00,31.3,29.5,29.34,East,90,0.0,0.0,93,0.00,,,0.00,WUHU216HW,2013-01-17 00:14:00,
2013-01-16 19:19:00,31.1,29.3,29.35,East,90,0.0,0.0,93,0.00,,,0.00,WUHU216HW,2013-01-17 00:19:00,
2013-01-16 19:24:00,31.3,29.5,29.35,East,90,0.0,0.0,93,0.00,,,0.00,WUHU216HW,2013-01-17 00:24:00,
2013-01-16 19:29:00,31.3,29.5,29.35,East,90,0.0,0.0,93,0.00,,,0.00,WUHU216HW,2013-01-17 00:29:00,
2013-01-16 19:34:00,31.3,29.5,29.35,East,90,0.0,0.0,93,0.00,,,0.00,WUHU216HW,2013-01-17 00:34:00,
2013-01-16 19:39:00,31.3,29.5,29.35,East,90,0.0,0.0,93,0.00,,,0.00,WUHU216HW,2013-01-17 00:39:00,
2013-01-16 19:44:00,31.3,29.5,29.35,East,90,0.0,0.0,93,0.00,,,0.00,WUHU216HW,2013-01-17 00:44:00,
2013-01-16 19:49:00,31.3,29.5,29.34,East,90,0.0,0.0,93,0.00,,,0.00,WUHU216HW,2013-01-17 00:49:00,
2013-01-16 19:54:00,31.3,29.5,29.34,East,90,0.0,0.0,93,0.00,,,0.00,WUHU216HW,2013-01-17 00:54:00,
2013-01-16 20:00:00,31.3,29.5,29.35,East,90,0.0,0.0,93,0.00,,,0.00,WUHU216HW,2013-01-17 01:00:00,
2013-01-16 20:05:00,31.3,29.5,29.35,East,90,0.0,0.0,93,0.00,,,0.00,WUHU216HW,2013-01-17 01:05:00,
2013-01-16 20:10:00,31.3,29.5,29.36,East,90,0.0,0.0,93,0.00,,,0.00,WUHU216HW,2013-01-17 01:10:00,
2013-01-16 20:15:00,31.3,29.5,29.35,East,90,0.0,0.0,93,0.00,,,0.00,WUHU216HW,2013-01-17 01:15:00,
2013-01-16 20:20:00,31.3,29.5,29.35,East,90,0.0,0.0,93,0.00,,,0.00,WUHU216HW,2013-01-17 01:20:00,
2013-01-16 20:25:00,31.3,29.5,29.34,East,90,0.0,0.0,93,0.00,,,0.00,WUHU216HW,2013-01-17 01:25:00,
2013-01-16 20:30:00,31.3,29.5,29.34,East,90,0.0,0.0,93,0.00,,,0.00,WUHU216HW,2013-01-17 01:30:00,
2013-01-16 20:35:00,31.3,29.5,29.34,East,90,0.0,0.0,93,0.00,,,0.00,WUHU216HW,2013-01-17 01:35:00,
2013-01-16 20:40:00,31.3,29.5,29.34,East,90,0.0,0.0,93,0.00,,,0.00,WUHU216HW,2013-01-17 01:40:00,
2013-01-16 20:45:00,31.3,29.5,29.33,East,90,0.0,0.0,93,0.00,,,0.00,WUHU216HW,2013-01-17 01:45:00,
2013-01-16 20:50:00,31.3,29.5,29.34,East,90,0.0,0.0,93,0.00,,,0.00,WUHU216HW,2013-01-17 01:50:00,
2013-01-16 20:56:00,31.5,29.7,29.34,East,90,0.0,0.0,93,0.00,,,0.00,WUHU216HW,2013-01-17 01:56:00,
2013-01-16 21:01:00,31.5,29.7,29.35,East,90,0.0,0.0,93,0.00,,,0.00,WUHU216HW,2013-01-17 02:01:00,
2013-01-16 21:06:00,31.9,30.3,29.35,East,90,0.0,0.0,94,0.00,,,0.00,WUHU216HW,2013-01-17 02:06:00,
2013-01-16 21:11:00,32.0,30.5,29.34,East,90,0.0,0.0,94,0.00,,,0.00,WUHU216HW,2013-01-17 02:11:00,
2013-01-16 21:16:00,32.2,30.7,29.34,East,90,0.0,0.0,94,0.00,,,0.00,WUHU216HW,2013-01-17 02:16:00,
2013-01-16 21:21:00,32.4,30.9,29.34,East,90,0.0,0.0,94,0.00,,,0.00,WUHU216HW,2013-01-17 02:21:00,
2013-01-16 21:26:00,32.4,30.9,29.34,East,90,0.0,0.0,94,0.00,,,0.00,WUHU216HW,2013-01-17 02:26:00,
2013-01-16 21:31:00,32.2,30.4,29.34,East,90,0.0,0.0,93,0.00,,,0.00,WUHU216HW,2013-01-17 02:31:00,
2013-01-16 21:36:00,32.4,30.9,29.34,East,90,0.0,0.0,94,0.00,,,0.00,WUHU216HW,2013-01-17 02:36:00,
2013-01-16 21:41:00,32.4,30.6,29.33,East,90,0.0,0.0,93,0.00,,,0.00,WUHU216HW,2013-01-17 02:41:00,
2013-01-16 21:46:00,32.2,30.4,29.33,East,90,0.0,0.0,93,0.00,,,0.00,WUHU216HW,2013-01-17 02:46:00,
2013-01-16 21:52:00,32.0,30.2,29.33,East,90,0.0,0.0,93,0.00,,,0.00,WUHU216HW,2013-01-17 02:52:00,
2013-01-16 21:57:00,31.9,30.1,29.33,East,90,0.0,0.0,93,0.00,,,0.00,WUHU216HW,2013-01-17 02:57:00,
2013-01-16 22:02:00,32.0,30.2,29.34,East,90,0.0,0.0,93,0.00,,,0.00,WUHU216HW,2013-01-17 03:02:00,
2013-01-16 22:07:00,32.0,30.2,29.34,East,90,0.0,0.0,93,0.00,,,0.00,WUHU216HW,2013-01-17 03:07:00,
2013-01-16 22:12:00,32.0,30.2,29.34,East,90,0.0,0.0,93,0.00,,,0.00,WUHU216HW,2013-01-17 03:12:00,
2013-01-16 22:17:00,32.2,30.4,29.34,East,90,0.0,0.0,93,0.00,,,0.00,WUHU216HW,2013-01-17 03:17:00,
2013-01-16 22:22:00,32.4,30.6,29.34,East,90,0.0,0.0,93,0.00,,,0.00,WUHU216HW,2013-01-17 03:22:00,
2013-01-16 22:27:00,32.4,30.6,29.33,East,90,0.0,0.0,93,0.00,,,0.00,WUHU216HW,2013-01-17 03:27:00,
2013-01-16 22:32:00,32.2,30.4,29.33,East,90,0.0,0.0,93,0.00,,,0.00,WUHU216HW,2013-01-17 03:32:00,
2013-01-16 22:37:00,32.2,30.4,29.33,East,90,0.0,0.0,93,0.00,,,0.00,WUHU216HW,2013-01-17 03:37:00,
2013-01-16 22:42:00,32.2,30.4,29.33,East,90,0.0,0.0,93,0.00,,,0.00,WUHU216HW,2013-01-17 03:42:00,
2013-01-16 22:47:00,32.2,30.4,29.32,East,90,0.0,0.0,93,0.00,,,0.00,WUHU216HW,2013-01-17 03:47:00,
2013-01-16 22:52:00,32.0,30.2,29.33,East,90,0.0,0.0,93,0.00,,,0.00,WUHU216HW,2013-01-17 03:52:00,
2013-01-16 22:58:00,32.0,30.2,29.34,East,90,0.0,0.0,93,0.00,,,0.00,WUHU216HW,2013-01-17 03:58:00,
2013-01-16 23:03:00,32.2,30.4,29.34,East,90,0.0,0.0,93,0.00,,,0.00,WUHU216HW,2013-01-17 04:03:00,
2013-01-16 23:08:00,32.0,30.2,29.34,East,90,0.0,0.0,93,0.00,,,0.00,WUHU216HW,2013-01-17 04:08:00,
2013-01-16 23:13:00,32.0,30.2,29.33,East,90,0.0,0.0,93,0.00,,,0.00,WUHU216HW,2013-01-17 04:13:00,
2013-01-16 23:18:00,32.0,30.2,29.33,East,90,0.0,0.0,93,0.00,,,0.00,WUHU216HW,2013-01-17 04:18:00,
2013-01-16 23:23:00,31.9,30.1,29.33,East,90,0.0,0.0,93,0.00,,,0.00,WUHU216HW,2013-01-17 04:23:00,
2013-01-16 23:28:00,31.7,29.9,29.33,East,90,0.0,0.0,93,0.00,,,0.00,WUHU216HW,2013-01-17 04:28:00,
2013-01-16 23:33:00,31.5,29.7,29.33,East,90,0.0,0.0,93,0.00,,,0.00,WUHU216HW,2013-01-17 04:33:00,
2013-01-16 23:38:00,31.3,29.5,29.33,East,90,0.0,0.0,93,0.00,,,0.00,WUHU216HW,2013-01-17 04:38:00,
2013-01-16 23:43:00,31.3,29.5,29.33,East,90,0.0,0.0,93,0.00,,,0.00,WUHU216HW,2013-01-17 04:43:00,
2013-01-16 23:48:00,31.1,29.3,29.33,East,90,0.0,0.0,93,0.00,,,0.00,WUHU216HW,2013-01-17 04:48:00,
2013-01-16 23:53:00,31.0,29.2,29.33,East,90,0.0,0.0,93,0.00,,,0.00,WUHU216HW,2013-01-17 04:53:00,
2013-01-16 23:58:00,31.0,29.2,29.33,East,90,0.0,0.0,93,0.00,,,0.00,WUHU216HW,2013-01-17 04:58:00,